Regional Weather Roundup
Issued by NWS Boston, MA

Home | Current Version | Previous Version | Text Only | Print | Product List | Glossary On
Versions: 1 2 3 4 5 6 7 8 9 10 11 12 13 14 15 16 17 18 19 20 21 22 23 24 25 26 27 28 29 30 31 32 33 34 35 36 37 38 39 40 41 42 43 44 45 46 47 48 49 50
000
ASUS41 KBOX 180610
RWRBOX

REGIONAL WEATHER ROUNDUP
NATIONAL WEATHER SERVICE TAUNTON MA
100 AM EST THU DEC 18 2014

NOTE:  "FAIR" INDICATES FEW OR NO CLOUDS BELOW 12,000 FEET WITH NO
SIGNIFICANT WEATHER AND/OR OBSTRUCTIONS TO VISIBILITY.  THE FOLLOWING
OBSERVATION LOCATIONS DO NOT REPORT PRESENT WEATHER...PROVINCETOWN...
SMITHFIELD...BLOCK ISLAND...KEENE...AND OXFORD.

MAZALL-180700-
EASTERN MASSACHUSETTS

CITY           SKY/WX    TMP DP  RH WIND       PRES   REMARKS
BOSTON         CLOUDY    40  32  73 W15       29.71S WCI  32
6HR MIN TEMP:  40; 6HR MAX TEMP:  46;

BEVERLY        MOCLDY    39  31  72 W12       29.69S WCI  32
LAWRENCE       PTCLDY    39  32  76 W8        29.71F
BEDFORD        CLOUDY    38  31  76 W12       29.71S WCI  30
BLUE HILL        N/A     37  30  75 W17G25    29.69S WCI  27
NORWOOD        CLOUDY    40  31  70 W10G17    29.72S
MARSHFIELD     MOCLDY    41  34  75 W9        29.73R
PLYMOUTH       CLOUDY    40  33  76 W10       29.73R
TAUNTON        CLOUDY    41  31  67 W7        29.73S
NEW BEDFORD    MOCLDY    40  32  73 W14G20    29.73F
$$

MAZALL-180700-
CAPE COD AND THE ISLANDS

CITY           SKY/WX    TMP DP  RH WIND       PRES   REMARKS
FALMOUTH       CLOUDY    41  32  70 W12       29.74R
HYANNIS        CLOUDY    42  33  70 W10       29.71R
CHATHAM        CLOUDY    42  35  76 W10G16    29.72S
PROVINCETOWN   CLOUDY    43  34  70 W16G24    29.71R
NANTUCKET      CLOUDY    44  35  70 W18G25    29.74S
MARTHAS VNYRD  CLOUDY    42  31  64 W10       29.75S
$$

MAZALL-180700-
CENTRAL AND WESTERN MASSACHUSETTS

CITY           SKY/WX    TMP DP  RH WIND       PRES   REMARKS
WORCESTER      MOCLDY    34  29  82 W23G35    29.69F WCI  22
6HR MIN TEMP:  34; 6HR MAX TEMP:  39;

FITCHBURG      CLOUDY    38  29  70 W10G22    29.72F WCI  31
ORANGE         CLOUDY    36  29  75 W8        29.74F WCI  30
SPRINGFIELD    CLOUDY    39  29  68 NW13G20   29.77F WCI  31
WESTFIELD      CLOUDY    39  28  64 NW12G20   29.78F WCI  32
NORTH ADAMS    CLOUDY    35  28  75 W10G23    29.79F WCI  27
PITTSFIELD     CLOUDY    32  30  92 W13       29.76F WCI  22
$$

RIZALL-180700-
RHODE ISLAND

CITY           SKY/WX    TMP DP  RH WIND       PRES   REMARKS
PROVIDENCE     CLOUDY    38  29  70 W12       29.76S WCI  30
6HR MIN TEMP:  38; 6HR MAX TEMP:  47;

NEWPORT        PTCLDY    39  30  70 W10G23    29.75F
BLOCK ISLAND   MOCLDY    41  30  65 W12G23    29.78F
SMITHFIELD     CLOUDY    37  25  60 W10G17    29.73F WCI  30
WESTERLY       CLEAR     39  31  72 W3        29.80S
$$

CTZALL-180700-
CONNECTICUT

CITY           SKY/WX    TMP DP  RH WIND       PRES   REMARKS
BRADLEY INTL   CLOUDY    39  30  70 NW12      29.79F WCI  32
6HR MIN TEMP:  39; 6HR MAX TEMP:  44; 6HR PCP: TRACE;

HARTFORD       CLOUDY    39  30  70 W12       29.81F WCI  32
BRIDGEPORT     CLOUDY    41  31  67 W8        29.83F
DANBURY        CLOUDY    39  26  59 W9G18     29.83F
GROTON         MOCLDY    37  33  85 W7        29.80F WCI  32
NEW HAVEN      CLOUDY    44  31  60 VRB5      29.82F
CHESTER        MOCLDY    36  32  87 W6        29.81S WCI  31
MERIDEN        CLOUDY    34  31  88 CALM      29.82F
WILLIMANTIC    CLOUDY    39  29  67 W7        29.78F
OXFORD         MOCLDY    37  27  65 W6        29.80F
$$

MEZ002-015-021-024-NHZ003-005-008-011-012-014-VTZ005-008-180700-
NORTHERN NEW ENGLAND

CITY           SKY/WX    TMP DP  RH WIND       PRES   REMARKS
PORTLAND ME    CLOUDY    39  36  89 CALM      29.65F
6HR MIN TEMP:  38; 6HR MAX TEMP:  39; 6HR PCP: TRACE;

BANGOR ME      LGT SNOW  33  31  92 N10       29.59S FOG     WCI  25
CONCORD NH     MOCLDY    37  32  82 W9        29.69F WCI  30
MANCHESTER NH  MOCLDY    39  32  76 W7        29.68F
NASHUA NH      CLOUDY    40  32  73 W7        29.72S
PORTSMOUTH NH  LGT RAIN  40  35  81 W9        29.66S
JAFFREY NH     CLOUDY    33  30  88 S5        29.70F WCI  29
KEENE NH       CLOUDY    34  32  93 CALM      29.73F
BURLINGTON VT  LGT RAIN  35  33  92 CALM      29.74F
MT. WASHINGTON SNOW      16  16 100 NW40        N/A  VSB 1/16WCI  -7
$$

NYZ052-076-180700-
EASTERN NEW YORK

CITY           SKY/WX    TMP DP  RH WIND       PRES   REMARKS
ALBANY         FLURRIES  36  29  75 W14       29.83F WCI  27
6HR MIN TEMP:  36; 6HR MAX TEMP:  39; 6HR PCP: TRACE;

NEW YORK CITY  CLOUDY    42  27  55 NW14G24   29.87F
6HR MIN TEMP:  42; 6HR MAX TEMP:  47; 6HR PCP: TRACE;

$$

ANZALL-180700-
MARINE OBSERVATIONS

STATION/POSITION TIME  TEMP    WIND        PRES    VSBY  WAVE
                       AIR SEA DIR/SP/G                  HT/PER
                 (UTC) (F)     (DEG/KT/KT) (MB)    (MI)  (FT/S)
BOSTON BUOY      0550   42 46  280/ 19/ 25 1005.5S         5/ 8
BUZZARDS BAY     0500          280/ 23/ 25 1008.2S
NANTUCKET SOUND  0550   44 44  270/ 19/ 23 1006.3R         2/ 4
MASS BAY-STELLWA 0504   42 45  280/ 17/ 19   N/A    1 7/8  5/ 8
ISLE OF SHOALS   0500   42     290/ 22/ 26 1003.5F
S OF BLOCK IS    0508      52                N/A           6/ 6
$$

......................KEY.........................
  SKY/WX - SKY CONDITION/PRESENT WEATHER
  TMP    - TEMPERATURE IN FAHRENHEIT
  DWPT   - DEWPOINT IN FAHRENHEIT
  RH     - RELATIVE HUMIDITY IN PERCENT
  WIND   - DIRECTION AND SPEED IN MPH
  PRES   - MEAN SEA LEVEL PRESSURE IN INCHES OF HG
  WCI    - WIND CHILL INDEX
  VSB    - VISIBILITY IN MILES
  HX     - HEAT INDEX
  TC     - TEMPERATURE IN CELSIUS
  VRB    - VARIABLE WIND DIRECTION
  N/A    - NOT AVAILABLE



USA.gov is the U.S. government's official web portal to all federal, state and local government web resources and services.